sat.trackr.live / text

‹ back to catalog

STARLINK-4328

NORAD 53071 · 2022-077AE

PAYLOAD ACTIVE UNKNOWN

§ Identity

Operator
Country
US
Launch date
2022-07-11
Launch site
AFWTR
Launch vehicle
Mass (kg)
RCS (m²)

Purposes: comms

External: N2YO · Heavens-Above · Gunter

§ Orbital elements

Epoch: 2026-09-19T18:35:56.124096Z

Period
93.91 min
Inclination
97.2852°
Eccentricity
0.0001782
Mean motion
15.33426948 rev/d
Perigee alt
464.4 km
Apogee alt
466.8 km
Semi-major
6,843.7 km
B*
-1.6999e-5
RAAN
78.5385°
Arg perigee
85.1937°
Mean anomaly
274.9509°
Rev number
23,024

§ Raw data

STARLINK-43281 53071U 22077AE  26262.77495514 -.00000624  00000+0 -16999-4 0  99952 53071  97.2852  78.5385 0001782  85.1937 274.9509 15.33426948230240

JSON: /api/v1/satellites/53071 · /tle

For live sub-satellite position, see the globe view (requires WebGL).

§ Visibility from observer

Set your observer location to see the next 7 days of passes ≥ 10°. The values pass through the URL so the page stays shareable.

No JS? Fill the form by hand. The geolocation button needs JavaScript.